Simultaneous Nadir Overpasses (SNOs) Predictions

Prediction of SNOs between AQUA and GOES-15 Satellite Orbit:

Table of predicted SNOs for the next 14.0 days since TLE Epoch: 4/3/2021
Index Date Time (AQUA) AQUA Lat,Lon GOES-15 Lat,Lon Distance(km) Time Diff (sec)
1 04/03/2021 10:07:07 -0.15,-127.92 -0.04,-128.28 41.50 80
2 04/05/2021 09:54:56 -0.75,-124.96 -0.04,-128.24 373.54 80
3 04/05/2021 22:16:19 -0.37,-130.15 0.03,-128.25 216.15 80
4 04/07/2021 22:04:07 0.24,-127.19 0.03,-128.21 116.12 80
5 04/08/2021 10:25:22 0.87,-132.34 -0.01,-128.20 471.28 80
6 04/09/2021 21:51:55 0.86,-124.23 0.03,-128.17 448.39 80
7 04/10/2021 10:13:10 0.25,-129.38 -0.02,-128.16 139.25 80
8 04/12/2021 10:00:58 -0.38,-126.42 -0.02,-128.12 192.41 80
9 04/12/2021 22:22:22 -0.74,-131.61 0.01,-128.10 399.12 80
10 04/14/2021 22:10:10 -0.11,-128.65 0.02,-128.06 67.80 80
11 04/16/2021 21:57:58 0.52,-125.70 0.02,-128.01 262.86 80
